Regional Weather Roundup
Issued by NWS

Home | Current Version | Previous Version | Text Only | Print | Product List | Glossary Off
Versions: 1 2 3 4 5 6 7 8 9 10 11 12 13 14 15 16 17 18 19 20 21 22 23 24 25 26 27 28 29 30 31 32 33 34 35 36 37 38 39 40 41 42 43 44 45 46 47 48 49 50

000
ASUS43 KOAX 310602
RWRNE

WEATHER ROUNDUP FOR NEBRASKA
NATIONAL WEATHER SERVICE OMAHA NE
100 AM CDT SUN AUG 31 2014

NOTES: SATELLITE DATA IS BEING USED TO AUGMENT CLOUD COVER ABOVE
       12000 FEET.
       "FAIR" INDICATES FEW OR NO CLOUDS BELOW 12,000 FEET WITH NO
       SIGNIFICANT WEATHER AND/OR OBSTRUCTIONS TO VISIBILITY.

  * THESE STATIONS DO NOT REPORT WEATHER SUCH AS RAIN...SNOW OR FOG.

NEZ001>004-019>022-054>056-310700-
NEBRASKA PANHANDLE

CITY           SKY/WX    TMP DP  RH WIND       PRES   REMARKS
SCOTTSBLUFF    MOCLDY    62  54  74 N7        29.87R
6HR MIN TEMP:  62; 6HR MAX TEMP:  85; 6HR PCP: TRACE;

ALLIANCE       CLOUDY    64  54  69 S7        29.84F
6HR MIN TEMP:  63; 6HR MAX TEMP:  86; 6HR PCP: TRACE;

CHADRON        MOCLDY    66  55  67 SW9       29.82R
6HR MIN TEMP:  66; 6HR MAX TEMP:  86; 6HR PCP:  0.21;

KIMBALL        CLOUDY    60  51  71 W6        29.91F
SIDNEY         CLOUDY    70  48  45 SW3       29.89F
6HR MIN TEMP:  70; 6HR MAX TEMP:  86; 6HR PCP: TRACE;

$$

NEZ057>060-069>072-079>082-310700-
SOUTHWEST NEBRASKA

CITY           SKY/WX    TMP DP  RH WIND       PRES   REMARKS
NORTH PLATTE   MOCLDY    72  56  57 VRB3      29.84R
6HR MIN TEMP:  67; 6HR MAX TEMP:  83;

IMPERIAL       MOCLDY    71  57  61 W8        29.85F
6HR MIN TEMP:  71; 6HR MAX TEMP:  87;

LEXINGTON      CLEAR     73  59  63 S13G18    29.82F
MCCOOK         PTCLDY    73  54  51 S13       29.83S
6HR MIN TEMP:  73; 6HR MAX TEMP:  88;

OGALLALA       CLOUDY    70  53  55 N7        29.85F
$$

NEZ005>010-023>029-035>040-094-310700-
NORTH CENTRAL NEBRASKA

CITY           SKY/WX    TMP DP  RH WIND       PRES   REMARKS
VALENTINE      CLOUDY    73  62  68 SW9       29.76F
6HR MIN TEMP:  73; 6HR MAX TEMP:  84;

AINSWORTH      CLOUDY    71  63  76 SW13      29.78F
BROKEN BOW     CLEAR     70  60  70 S8        29.81F
6HR MIN TEMP:  68; 6HR MAX TEMP:  81;

O`NEILL        CLEAR     71  66  85 S13       29.78F
ORD            CLEAR     69  64  84 SE6       29.80S
6HR MIN TEMP:  69; 6HR MAX TEMP:  80;

THEDFORD       CLOUDY    75  58  57 SW8       29.83S
$$

NEZ041-046>049-061>064-073>077-083>087-310700-
SOUTH CENTRAL NEBRASKA

CITY           SKY/WX    TMP DP  RH WIND       PRES   REMARKS
GRAND ISLAND   FAIR      71  63  75 S13       29.83S
6HR MIN TEMP:  71; 6HR MAX TEMP:  81;

AURORA         FAIR      71  64  78 S12       29.83S
HASTINGS       FAIR      70  59  68 S8        29.84F
6HR MIN TEMP:  70; 6HR MAX TEMP:  82;

HEBRON         FAIR      68  61  78 SE3       29.85S
HOLDREGE       FAIR      70  59  69 S9        29.84S
KEARNEY *      FAIR      70  61  73 S13       29.83F
$$

NEZ011>018-030>034-042>045-310700-
NORTHEAST NEBRASKA

CITY           SKY/WX    TMP DP  RH WIND       PRES   REMARKS
NORFOLK        FAIR      69  63  81 SE7       29.81F
6HR MIN TEMP:  69; 6HR MAX TEMP:  78;

ALBION         FAIR      67  63  87 SE6       29.82S
BLAIR          FAIR      71  65  80 S7        29.84F
FREMONT        FAIR      72  64  77 SE9       29.84S
TEKAMAH        FAIR      66  64  93 SE6       29.83F
6HR MIN TEMP:  66; 6HR MAX TEMP:  79;

WAYNE          FAIR      66  64  90 S6        29.83S
$$

NEZ050>053-065>068-078-088>093-310700-
SOUTHEAST NEBRASKA

CITY           SKY/WX    TMP DP  RH WIND       PRES   REMARKS
LINCOLN        FAIR      70  64  81 S7        29.85S
6HR MIN TEMP:  70; 6HR MAX TEMP:  83;

OMAHA EPPLEY   FAIR      71  64  78 S8        29.85F
6HR MIN TEMP:  70; 6HR MAX TEMP:  80;

BEATRICE       FAIR      71  65  80 SE7       29.85F
FALLS CITY     FAIR      70  66  87 SE7       29.86F
6HR MIN TEMP:  69; 6HR MAX TEMP:  83;

NEBRASKA CITY  FAIR      69  69  99 S7        29.86F
PLATTSMOUTH    FAIR      71  65  82 SE9       29.86S
$$

NEZ044-045-051>053-067-310700-
OMAHA AREA

CITY           SKY/WX    TMP DP  RH WIND       PRES   REMARKS
OMAHA EPPLEY   FAIR      71  64  78 S8        29.85F
6HR MIN TEMP:  70; 6HR MAX TEMP:  80;

BLAIR          FAIR      71  65  80 S7        29.84F
FREMONT        FAIR      72  64  77 SE9       29.84S
MILLARD        FAIR      70  65  85 SE3       29.85S
OFFUTT AFB     FAIR      67  67 100 E5        29.85S
PLATTSMOUTH    FAIR      71  65  82 SE9       29.86S
WAHOO          FAIR      67  64  88 SE6       29.84F
$$



USA.gov is the U.S. government's official web portal to all federal, state and local government web resources and services.